x

9076070 - S.w. Pier, Mi (swpm4) Weather Station

7:54pm - Sat 25th Oct 2014 All times are CDT. -5 hours from GMT.

  • Wind
    26mph, 33mph gusts
  • Air Temp 51°f
  • Sea Pressure 1003mb
  • 9076070 - S.w. Pier, Mi
  • 9076070 - S.w. Pier, Mi

More Historic Weather Station data

Upgrade to MSW Pro to gain access to the past 30 days of data for over 8000 Wavebouys and Weather Stations around the globe.

Join Pro

Comparision Forecast

View Surf forecast
   
Sat 10/25 7:54pm 26 33 mph 1003mb 51f
7:48pm 29 37 mph 1003mb 51f
7:42pm 29 34 mph 1003mb 51f
7:36pm 30 44 mph 1002.9mb 51f
7:30pm 30 47 mph 1002.9mb 51f
7:24pm 31 38 mph 1002.8mb 51f
7:18pm 31 39 mph 1002.7mb 52f
7:12pm 33 41 mph 1002.7mb 52f
7:06pm 26 44 mph 1002.6mb 52f
7:00pm 32 43 mph 1002.7mb 52f
6:54pm 32 44 mph 1002.6mb 52f
6:48pm 29 41 mph 1002.7mb 52f
6:42pm 30 40 mph 1002.7mb 52f
6:36pm 31 37 mph 1002.7mb 52f
6:30pm 31 37 mph 1002.7mb 52f
6:24pm 26 38 mph 1002.7mb 51f
6:18pm 26 38 mph 1002.8mb 51f
6:12pm 31 40 mph 1002.7mb 51f
6:06pm 26 40 mph 1002.8mb 51f
6:00pm 31 37 mph 1002.7mb 51f
5:54pm 31 38 mph 1002.8mb 51f
5:48pm 33 41 mph 1002.8mb 51f
5:42pm 31 39 mph 1002.9mb 51f
5:36pm 30 37 mph 1003mb 51f
5:30pm 29 33 mph 1003.1mb 51f
5:24pm 30 38 mph 1003.1mb 51f
5:18pm 29 33 mph 1003.1mb 51f
5:12pm 30 37 mph 1003.1mb 51f
5:06pm 26 36 mph 1003.2mb 52f
5:00pm 29 34 mph 1003.2mb 52f
4:54pm 29 33 mph 1003.2mb 51f
4:48pm 24 32 mph 1003.1mb 52f
4:42pm 25 33 mph 1003.1mb 52f
4:36pm 29 36 mph 1003mb 52f
4:30pm 24 36 mph 1002.9mb 51f
4:24pm 26 31 mph 1002.9mb 51f
4:18pm 28 34 mph 1002.9mb 51f
4:12pm 29 34 mph 1002.8mb 51f
4:06pm 23 32 mph 1002.9mb 51f
4:00pm 24 30 mph 1002.9mb 51f
3:54pm 28 33 mph 1002.8mb 51f
3:48pm 22 37 mph 1002.8mb 51f
3:42pm 26 34 mph 1002.8mb 51f
3:36pm 28 36 mph 1002.8mb 51f
3:30pm 29 36 mph 1002.9mb 51f
3:24pm 28 37 mph 1002.9mb 51f
3:18pm 28 33 mph 1002.9mb 51f
3:12pm 28 31 mph 1002.9mb 51f
3:06pm 25 31 mph 1002.9mb 51f
3:00pm 21 28 mph 1002.9mb 51f
2:54pm 21 28 mph 1002.9mb 51f
2:48pm 22 26 mph 1002.9mb 51f
2:42pm 23 34 mph 1002.8mb 51f
2:36pm 23 30 mph 1002.8mb 51f
2:30pm 26 37 mph 1002.7mb 51f
2:24pm 31 34 mph 1002.6mb 51f
2:18pm 24 33 mph 1002.5mb 51f
2:12pm 28 37 mph 1002.5mb 51f
2:06pm 29 40 mph 1002.4mb 51f
2:00pm 24 38 mph 1002.3mb 52f
1:54pm 29 38 mph 1002.3mb 51f
1:48pm 25 34 mph 1002.3mb 51f
1:42pm 25 38 mph 1002.4mb 51f
1:36pm 25 32 mph 1002.3mb 51f
1:30pm 28 33 mph 1002.3mb 51f
1:24pm 28 40 mph 1002.2mb 51f
1:18pm 24 34 mph 1002.2mb 51f
1:12pm 29 43 mph 1002.2mb 51f
1:06pm 29 37 mph 1002.2mb 51f
1:00pm 29 37 mph 1002.1mb 51f
12:54pm 32 38 mph 1002.1mb 52f
12:48pm 29 40 mph 1002mb 52f
12:42pm 29 43 mph 1002mb 52f
12:36pm 29 38 mph 1001.9mb 52f
12:30pm 33 45 mph 1001.8mb 53f
12:24pm 30 41 mph 1001.7mb 53f
12:18pm 30 37 mph 1001.7mb 53f
12:12pm 31 40 mph 1001.8mb 53f
12:06pm 30 44 mph 1001.8mb 53f
12:00pm 32 40 mph 1001.7mb 53f
11:54am 26 36 mph 1001.7mb 54f
11:48am 29 41 mph 1001.7mb 54f
11:42am 26 36 mph 1001.8mb 54f
11:36am 31 39 mph 1001.8mb 54f
11:30am 29 34 mph 1001.8mb 54f
11:24am 25 33 mph 1001.8mb 54f
11:18am 28 38 mph 1001.8mb 54f
11:12am 29 39 mph 1001.7mb 54f
11:06am 31 37 mph 1001.6mb 54f
11:00am 32 39 mph 1001.7mb 54f
10:54am 30 37 mph 1001.7mb 54f
10:48am 29 37 mph 1001.7mb 54f
10:42am 31 38 mph 1001.7mb 55f
10:36am 26 37 mph 1001.7mb 55f
10:30am 29 41 mph 1001.7mb 54f
10:24am 24 33 mph 1001.6mb 55f
10:18am 29 37 mph 1001.7mb 55f
10:12am 28 32 mph 1001.6mb 55f
10:06am 26 32 mph 1001.7mb 55f
10:00am 29 36 mph 1001.7mb 55f
9:54am 28 33 mph 1001.6mb 55f
9:48am 24 34 mph 1001.6mb 54f
9:42am 22 32 mph 1001.7mb 54f
9:36am 22 30 mph 1001.8mb 54f
9:30am 20 25 mph 1001.7mb 54f
9:24am 17 22 mph 1001.7mb 54f
9:18am 20 22 mph 1001.7mb 54f
9:12am 20 24 mph 1001.7mb 54f
9:06am 20 23 mph 1001.7mb 54f
9:00am 20 22 mph 1001.6mb 53f
8:54am 18 22 mph 1001.6mb 53f
8:48am 16 20 mph 1001.6mb 53f
8:42am 16 18 mph 1001.6mb 53f
8:36am 16 18 mph 1001.6mb 53f
8:30am 16 20 mph 1001.6mb 53f
8:24am 16 20 mph 1001.6mb 53f
8:18am 15 20 mph 1001.6mb 53f
8:12am 16 20 mph 1001.6mb 53f
8:06am 16 20 mph 1001.6mb 53f
8:00am 16 20 mph 1001.5mb 52f
7:54am 17 21 mph 1001.5mb 52f
7:48am 15 17 mph 1001.5mb 52f
7:42am 16 20 mph 1001.5mb 52f
7:36am 14 18 mph 1001.5mb 52f
7:30am 16 20 mph 1001.5mb 52f
7:24am 16 22 mph 1001.5mb 53f
7:18am 15 18 mph 1001.5mb 53f
7:12am 16 21 mph 1001.5mb 53f
7:06am 17 21 mph 1001.5mb 53f
7:00am 16 20 mph 1001.5mb 53f
6:54am 15 20 mph 1001.4mb 53f
6:48am 18 22 mph 1001.5mb 53f
6:42am 16 20 mph 1001.6mb 53f
6:36am 15 22 mph 1001.6mb 54f
6:30am 16 22 mph 1001.6mb 54f
6:24am 17 22 mph 1001.6mb 54f
6:18am 17 20 mph 1001.6mb 54f
6:12am 15 18 mph 1001.6mb 54f
6:06am 14 16 mph 1001.7mb 54f
6:00am 11 14 mph 1001.7mb 53f
5:54am 11 18 mph 1001.6mb 53f
5:48am 14 16 mph 1001.6mb 53f
5:42am 16 20 mph 1001.7mb 53f
5:36am 16 21 mph 1001.6mb 53f
5:30am 17 22 mph 1001.6mb 53f
5:24am 17 21 mph 1001.6mb 53f
5:18am 17 21 mph 1001.5mb 53f
5:12am 14 20 mph 1001.6mb 53f
5:06am 14 17 mph 1001.6mb 53f
5:00am 11 17 mph 1001.6mb 53f
4:54am 10 16 mph 1001.7mb 53f
4:48am 15 20 mph 1001.9mb 53f
4:42am 13 17 mph 1001.9mb 53f
4:36am 14 18 mph 1002.2mb 53f
4:30am 10 17 mph 1002.2mb 52f
4:24am 9 14 mph 1002.2mb 52f
4:18am 10 17 mph 1002.3mb 52f
4:12am 13 23 mph 1002.5mb 52f
4:06am 11 16 mph 1002.6mb 52f
4:00am 14 17 mph 1002.8mb 52f
3:54am 13 17 mph 1002.8mb 52f
3:48am 14 18 mph 1002.8mb 52f
3:42am 16 20 mph 1002.8mb 52f
3:36am 11 16 mph 1002.9mb 52f
3:30am 11 16 mph 1003mb 52f
3:24am 13 17 mph 1003.2mb 52f
3:18am 13 16 mph 1003.5mb 52f
3:12am 9 16 mph 1003.4mb 52f
3:06am 11 16 mph 1003.7mb 52f
3:00am 8 14 mph 1003.8mb 52f
2:54am 10 13 mph 1003.8mb 52f
2:48am 7 13 mph 1003.8mb 52f
2:42am 6 8 mph 1003.8mb 51f
2:36am 5 9 mph 1004mb 51f
2:30am 5 6 mph 1004.2mb 51f
2:24am 5 8 mph 1004.2mb 51f
2:18am 7 9 mph 1004.3mb 51f
2:12am 6 8 mph 1004.3mb 51f
2:06am 3 8 mph 1004.5mb 51f
2:00am 6 10 mph 1004.4mb 51f
1:54am 6 8 mph 1004.6mb 51f
1:48am 6 8 mph 1004.7mb 51f
1:42am 6 9 mph 1004.8mb 51f
1:36am 5 7 mph 1005mb 51f
1:30am 5 7 mph 1005.2mb 51f
1:24am 3 6 mph 1005.3mb 51f
1:18am 6 8 mph 1005.5mb 51f
1:12am 3 8 mph 1005.7mb 51f
1:06am 3 8 mph 1005.7mb 51f
1:00am 6 8 mph 1005.8mb 51f
12:54am 5 11 mph 1005.8mb 51f
12:48am 5 9 mph 1006.1mb 51f
12:42am 3 9 mph 1006.4mb 51f
12:36am 5 8 mph 1006.5mb 51f
12:30am 5 9 mph 1006.6mb 51f
12:24am 7 10 mph 1006.7mb 51f
12:18am 6 9 mph 1006.7mb 50f
12:12am 6 10 mph 1006.7mb 50f
12:06am 6 9 mph 1006.7mb 50f
12:00am 6 10 mph 1006.7mb 50f
Fri 10/24 11:54pm 6 13 mph 1006.7mb 50f
11:48pm 6 11 mph 1007mb 50f
11:42pm 6 8 mph 1007mb 50f
11:36pm 2 7 mph 1007.3mb 50f
11:30pm 1 7 mph 1007.4mb 50f
11:24pm 5 6 mph 1007.4mb 50f
11:18pm 5 7 mph 1007.5mb 50f
11:12pm 5 7 mph 1007.8mb 50f
11:06pm 6 10 mph 1008mb 50f
11:00pm 6 8 mph 1008.1mb 50f
10:54pm 5 7 mph 1008.1mb 50f
10:48pm 2 10 mph 1008mb 50f
10:42pm 3 9 mph 1008.1mb 50f
10:36pm 7 10 mph 1008.2mb 50f
10:30pm 3 5 mph 1008.3mb 50f
10:24pm 2 7 mph 1008.5mb 50f
10:18pm 6 8 mph 1008.8mb 50f
10:12pm 3 8 mph 1008.8mb 50f
10:06pm 5 9 mph 1008.9mb 50f
10:00pm 7 9 mph 1008.9mb 50f
9:54pm 2 7 mph 1008.9mb 50f
9:48pm 6 9 mph 1008.9mb 50f
9:42pm 5 10 mph 1009mb 50f
9:36pm 6 9 mph 1009.1mb 50f
9:30pm 6 10 mph 1009.3mb 50f
9:24pm 6 10 mph 1009.4mb 50f
9:18pm 6 11 mph 1009.5mb 50f
9:12pm 8 13 mph 1009.5mb 50f
9:06pm 9 14 mph 1009.6mb 50f
9:00pm 2 7 mph 1009.5mb 50f
8:54pm 5 7 mph 1009.5mb 50f
8:48pm 3 6 mph 1009.4mb 50f
8:42pm 2 3 mph 1009.5mb 50f
8:36pm 2 5 mph 1009.5mb 50f
8:30pm 3 9 mph 1009.6mb 50f
8:24pm 5 7 mph 1009.6mb 50f
8:18pm 6 11 mph 1009.7mb 50f
8:12pm 5 7 mph 1009.8mb 50f
8:06pm 7 13 mph 1010mb 50f
8:00pm 8 10 mph 1010.3mb 50f
7:54pm 8 13 mph 1010.2mb 50f
7:48pm 11 14 mph 1010.3mb 50f
7:42pm 7 11 mph 1010.4mb 50f
7:36pm 7 9 mph 1010.4mb 51f
7:30pm 5 9 mph 1010.5mb 51f
7:24pm 6 8 mph 1010.5mb 51f
7:18pm 5 8 mph 1010.5mb 51f
7:12pm 6 10 mph 1010.5mb 51f
7:06pm 6 9 mph 1010.6mb 51f
7:00pm 5 7 mph 1010.7mb 51f
6:54pm 2 5 mph 1010.8mb 51f
6:48pm 3 7 mph 1010.8mb 51f
6:42pm 2 3 mph 1010.7mb 51f
6:36pm 2 6 mph 1010.7mb 51f
6:30pm 7 10 mph 1010.7mb 51f
6:24pm 7 11 mph 1010.7mb 51f
6:18pm 6 9 mph 1010.8mb 51f
6:12pm 6 8 mph 1010.8mb 51f
6:06pm 6 8 mph 1010.8mb 51f
6:00pm 5 7 mph 1010.9mb 52f
5:54pm 5 7 mph 1011mb 52f
5:48pm 5 8 mph 1010.9mb 52f
5:42pm 3 5 mph 1010.9mb 52f
5:36pm 3 7 mph 1011mb 52f
5:30pm 6 8 mph 1011.2mb 52f
5:24pm 3 6 mph 1011.1mb 52f
5:18pm 3 7 mph 1011.1mb 52f
5:12pm 6 9 mph 1011.1mb 53f
5:06pm 5 8 mph 1011.1mb 53f
5:00pm 7 10 mph 1011.1mb 53f
4:54pm 5 7 mph 1011.1mb 53f
4:48pm 2 8 mph 1011mb 53f
4:42pm 3 8 mph 1010.9mb 53f
4:36pm 2 3 mph 1010.9mb 53f
4:30pm 5 8 mph 1011mb 53f
4:24pm 7 8 mph 1011.1mb 53f
4:18pm 2 5 mph 1011.1mb 53f
4:12pm 5 8 mph 1011mb 53f
4:06pm 5 8 mph 1011.1mb 53f
4:00pm 5 7 mph 1011.2mb 53f
3:54pm 5 6 mph 1011.1mb 53f
3:48pm 5 6 mph 1011mb 53f
3:42pm 2 6 mph 1011mb 53f
3:36pm 5 7 mph 1011mb 53f
3:30pm 3 6 mph 1011.1mb 53f
3:24pm 5 6 mph 1011.1mb 52f
3:18pm 2
mph
1011.1mb 52f
3:12pm 1 2 mph 1011.1mb 52f
3:06pm 1 3 mph 1011.3mb 51f
3:00pm 5 7 mph 1011.3mb 52f
2:54pm  -  2 mph 1011.4mb 51f
2:48pm 2 3 mph 1011.5mb 51f
2:42pm  -  1 mph 1011.5mb 51f
2:36pm 1 2 mph 1011.4mb 51f
2:30pm 1 3 mph 1011.4mb 50f
2:24pm 3
mph
1011.5mb 50f
2:18pm  -  2 mph 1011.5mb 51f
2:12pm 1 2 mph 1011.5mb 50f
2:06pm  -  1 mph 1011.6mb 50f
2:00pm  -  1 mph 1011.7mb 50f
1:54pm  -  mph 1011.8mb 50f
1:48pm  -  mph 1011.8mb 50f
1:42pm 1 3 mph 1011.9mb 50f
1:36pm 2 3 mph 1012mb 49f
1:30pm 2 3 mph 1012.1mb 49f
1:24pm  -  1 mph 1012.3mb 49f
1:18pm  -  1 mph 1012.4mb 49f
1:12pm 1 2 mph 1012.4mb 49f
1:06pm  -  3 mph 1012.5mb 49f
1:00pm 2 3 mph 1012.5mb 49f
12:54pm 3
mph
1012.5mb 48f
12:48pm 2 3 mph 1012.6mb 48f
12:42pm 2 5 mph 1012.5mb 48f
12:36pm 5
mph
1012.5mb 48f
12:30pm 5 6 mph 1012.4mb 48f
12:24pm 5
mph
1012.6mb 48f
12:18pm 5
mph
1012.8mb 48f
12:12pm 2 6 mph 1012.9mb 48f
12:06pm 5 6 mph 1012.8mb 48f
12:00pm 5 6 mph 1012.8mb 48f
11:54am 5
mph
1012.9mb 48f
11:48am 5 6 mph 1013mb 47f
11:42am 5
mph
1013.1mb 47f
11:36am 2 3 mph 1013.3mb 47f
11:30am 2 3 mph 1013.4mb 47f
11:24am 2 3 mph 1013.5mb 46f
11:18am 3 5 mph 1013.6mb 46f
11:12am 3
mph
1013.7mb 46f
11:06am 2 5 mph 1013.7mb 46f
11:00am 3 5 mph 1013.7mb 46f
10:54am 3
mph
1013.7mb 46f
10:48am 1 3 mph 1013.8mb 46f
10:42am 3 5 mph 1013.8mb 46f
10:36am 2 3 mph 1013.9mb 46f
10:30am 1 2 mph 1014.1mb 46f
10:24am 2 3 mph 1014.1mb 45f
10:18am 2 3 mph 1014.2mb 45f
10:12am 1
mph
1014.3mb 45f
10:06am  -  1 mph 1014.3mb 45f
10:00am  -  2 mph 1014.3mb 45f
9:54am 2
mph
1014.2mb 45f
9:48am 2
mph
1014.3mb 45f
9:42am 2 3 mph 1014.4mb 45f
9:36am 2 5 mph 1014.3mb 45f
9:30am 3 5 mph 1014.3mb 45f
9:24am 3 5 mph 1014.4mb 44f
9:18am 3 5 mph 1014.3mb 44f
9:12am 3 5 mph 1014.3mb 44f
9:06am 3 5 mph 1014.3mb 44f
9:00am 2 6 mph 1014.3mb 44f
8:54am 3 5 mph 1014.3mb 44f
8:48am 5
mph
1014.3mb 44f
8:42am 5 6 mph 1014.5mb 44f
8:36am 3 5 mph 1014.6mb 44f
8:30am 3 5 mph 1014.6mb 44f
8:24am 3 5 mph 1014.5mb 44f
8:18am 5
mph
1014.6mb 44f
8:12am 3 6 mph 1014.7mb 44f
8:06am 3 5 mph 1014.7mb 44f
8:00am 5 6 mph 1014.8mb 44f
7:54am 3 6 mph 1014.8mb 44f
7:48am 5
mph
1014.7mb 44f
7:42am 5
mph
1014.6mb 44f
7:36am 3 5 mph 1014.5mb 44f
7:30am 3 5 mph 1014.4mb 44f
7:24am 3 6 mph 1014.4mb 43f
7:18am 5 6 mph 1014.4mb 44f
7:12am 3 5 mph 1014.4mb 43f
7:06am 3 5 mph 1014.4mb 43f
7:00am 2
mph
1014.4mb 43f
6:54am 2 5 mph 1014.4mb 43f
6:48am 3 5 mph 1014.3mb 43f
6:42am 3 5 mph 1014.4mb 44f
6:36am 2 5 mph 1014.3mb 44f
6:30am 3 5 mph 1014.4mb 43f
6:24am 2 3 mph 1014.4mb 43f
6:18am 2 5 mph 1014.4mb 43f
6:12am 3 5 mph 1014.5mb 43f
6:06am 3
mph
1014.5mb 43f
6:00am 3 5 mph 1014.5mb 43f
5:54am 3 6 mph 1014.5mb 43f
5:48am 5 6 mph 1014.5mb 43f
5:42am 2 3 mph 1014.5mb 43f
5:36am 3 5 mph 1014.5mb 43f
5:30am 3 5 mph 1014.5mb 43f
5:24am 3 5 mph 1014.4mb 43f
5:18am 3 6 mph 1014.4mb 43f
5:12am 3 6 mph 1014.4mb 43f
5:06am 3 6 mph 1014.5mb 43f
5:00am 3 5 mph 1014.5mb 43f
4:54am 5 7 mph 1014.6mb 43f
4:48am 5 6 mph 1014.7mb 43f
4:42am 3 5 mph 1014.7mb 43f
4:36am 3 5 mph 1014.7mb 43f
4:30am 3 6 mph 1014.8mb 43f
4:24am 5 6 mph 1014.8mb 43f
4:18am 5
mph
1014.8mb 43f
4:12am 5 6 mph 1014.9mb 43f
4:06am 3 6 mph 1014.8mb 43f
4:00am 5 6 mph 1014.8mb 43f
3:54am 3 6 mph 1014.8mb 43f
3:48am 3 6 mph 1014.9mb 43f
3:42am 5 6 mph 1014.9mb 43f
3:36am 2 5 mph 1014.9mb 43f
3:30am 2 5 mph 1014.9mb 43f
3:24am 2 3 mph 1015mb 43f
3:18am 2 3 mph 1015mb 43f
3:12am 3 5 mph 1015mb 43f
3:06am 2 3 mph 1015mb 42f
3:00am 2 3 mph 1015.1mb 42f
2:54am 2 3 mph 1015.1mb 42f
2:48am 2 3 mph 1015.2mb 42f
2:42am 5
mph
1015.3mb 42f
2:36am 3 6 mph 1015.2mb 42f
2:30am 5 6 mph 1015.2mb 42f
2:24am 5 6 mph 1015.2mb 42f
2:18am 5 6 mph 1015.2mb 42f
2:12am 6 7 mph 1015.2mb 42f
2:06am 5 6 mph 1015.3mb 42f
2:00am 5 7 mph 1015.2mb 42f
1:54am 6 7 mph 1015.3mb 42f
1:48am 6 7 mph 1015.3mb 42f
1:42am 5 8 mph 1015.3mb 42f
1:36am 6 7 mph 1015.3mb 42f
1:30am 5 6 mph 1015.4mb 42f
1:24am 5 6 mph 1015.4mb 42f
1:18am 5 6 mph 1015.5mb 42f
1:12am 5 6 mph 1015.5mb 42f
1:06am 5 6 mph 1015.5mb 42f
1:00am 5 6 mph 1015.5mb 42f
12:54am 5 6 mph 1015.6mb 42f
12:48am 5 6 mph 1015.7mb 42f
12:42am 5 6 mph 1015.7mb 42f
12:36am 6
mph
1015.8mb 42f
12:30am 5 6 mph 1015.8mb 42f
12:24am 3 6 mph 1015.9mb 42f
12:18am 5 6 mph 1016mb 42f
12:12am 3 6 mph 1016mb 42f
12:06am 5 6 mph 1016mb 42f
12:00am 3
mph
1016mb 42f
Thu 10/23 11:54pm 3 5 mph 1016mb 42f
11:48pm 3 5 mph 1016.1mb 42f
11:42pm 5 7 mph 1016.1mb 42f
11:36pm 5 6 mph 1016.1mb 42f
11:30pm 6
mph
1016mb 42f
11:24pm 3 5 mph 1016.1mb 42f
11:18pm 3 5 mph 1016.2mb 42f
11:12pm 3 5 mph 1016.3mb 42f
11:06pm 3 5 mph 1016.3mb 42f
11:00pm 3
mph
1016.4mb 42f
10:54pm 3
mph
1016.4mb 42f
10:48pm 3 5 mph 1016.5mb 42f
10:42pm 3
mph
1016.6mb 42f
10:36pm 3 5 mph 1016.6mb 42f
10:30pm 3
mph
1016.6mb 42f
10:24pm 2 3 mph 1016.7mb 42f
10:18pm 2 3 mph 1016.8mb 42f
10:12pm 3
mph
1016.8mb 42f
10:06pm 3
mph
1016.9mb 42f
10:00pm 2 5 mph 1017mb 42f
9:54pm 3 5 mph 1017mb 42f
9:48pm 5
mph
1017mb 42f
9:42pm 3 5 mph 1017mb 42f
9:36pm 3
mph
1016.9mb 42f
9:30pm 3 5 mph 1016.9mb 42f
9:24pm 3 5 mph 1016.9mb 42f
9:18pm 3 5 mph 1016.9mb 43f
9:12pm 2 5 mph 1017mb 43f
9:06pm 3
mph
1017mb 43f
9:00pm 3 5 mph 1017mb 43f
8:54pm 1 3 mph 1017.2mb 44f
8:48pm 1 2 mph 1017.1mb 43f
8:42pm 1 2 mph 1017.2mb 43f
8:36pm  -  2 mph 1017.2mb 43f
8:30pm  -  3 mph 1017.3mb 43f
8:24pm 1 3 mph 1017.2mb 43f
8:18pm 2 5 mph 1017.1mb 42f
8:12pm 2 5 mph 1017.1mb 43f
8:06pm 3 6 mph 1017.1mb 43f
8:00pm 3 5 mph 1017.1mb 43f
7:54pm 2 6 mph 1017.1mb 43f
7:48pm 3 7 mph 1017.1mb 44f
7:42pm 5 7 mph 1017.1mb 44f
7:36pm 6 7 mph 1017.2mb 44f
7:30pm 5 7 mph 1017.2mb 45f
7:24pm 5 7 mph 1017.2mb 45f
7:18pm 3 9 mph 1017.2mb 45f
7:12pm 3 7 mph 1017.2mb 46f
7:06pm 5 8 mph 1017.2mb 46f
7:00pm 3 6 mph 1017.1mb 46f
6:54pm 3 6 mph 1017.2mb 46f
6:48pm 3 6 mph 1017.3mb 46f
6:42pm 5 6 mph 1017.3mb 47f
6:36pm 5 6 mph 1017.2mb 47f
6:30pm 3 6 mph 1017.2mb 47f
6:24pm 3 6 mph 1017.2mb 47f
6:18pm 3 5 mph 1017.2mb 47f
6:12pm 3 6 mph 1017.3mb 48f
6:06pm 3 6 mph 1017.2mb 48f
6:00pm 3 5 mph 1017.2mb 48f
5:54pm 2 6 mph 1017.1mb 49f
5:48pm 3 5 mph 1017mb 49f
5:42pm 3 6 mph 1017mb 49f
5:36pm 3 5 mph 1017mb 50f
5:30pm 5 6 mph 1017.1mb 50f
5:24pm 3 6 mph 1017.1mb 50f
5:18pm 2 7 mph 1017.1mb 51f
5:12pm 3 8 mph 1017.2mb 51f
5:06pm 5 8 mph 1017.2mb 51f
5:00pm 5 9 mph 1017.3mb 52f
4:54pm 5 10 mph 1017.3mb 53f
4:48pm 8 11 mph 1017.3mb 53f
4:42pm 2 8 mph 1017.3mb 53f
4:36pm 6 11 mph 1017.3mb 53f
4:30pm 6 8 mph 1017.3mb 53f
4:24pm 7 10 mph 1017.4mb 53f
4:18pm 6 9 mph 1017.4mb 53f
4:12pm 5 7 mph 1017.4mb 53f
4:06pm 5 7 mph 1017.5mb 53f
4:00pm 6 7 mph 1017.5mb 52f
3:54pm 6 8 mph 1017.4mb 52f
3:48pm 6 9 mph 1017.4mb 52f
3:42pm 6 8 mph 1017.5mb 52f
3:36pm 5 8 mph 1017.6mb 52f
3:30pm 5 8 mph 1017.6mb 52f
3:24pm 7 9 mph 1017.6mb 52f
3:18pm 5 9 mph 1017.7mb 53f
3:12pm 6 8 mph 1017.7mb 52f
3:06pm 6 8 mph 1017.7mb 52f
3:00pm 5 8 mph 1017.7mb 53f
2:54pm 7 10 mph 1017.8mb 53f
2:48pm 5 9 mph 1017.9mb 53f
2:42pm 7 10 mph 1017.9mb 53f
2:36pm 6 9 mph 1018.1mb 53f
2:30pm 7 10 mph 1018.1mb 53f
2:24pm 8 10 mph 1018.2mb 51f
2:18pm 6 7 mph 1018.2mb 53f
2:12pm 6 11 mph 1018.3mb 52f
2:06pm 6 9 mph 1018.3mb 52f
2:00pm 7 9 mph 1018.3mb 53f
1:54pm 6 8 mph 1018.5mb 52f
1:48pm 5 8 mph 1018.5mb 52f
1:42pm 7 10 mph 1018.5mb 51f
1:36pm 8 11 mph 1018.6mb 49f
1:30pm 8 11 mph 1018.7mb 50f
1:24pm 9 11 mph 1018.8mb 49f
1:18pm 9 10 mph 1019mb 49f
1:12pm 7 10 mph 1019mb 50f
1:06pm 6 9 mph 1019.1mb 49f
1:00pm 6 8 mph 1019.2mb 49f
12:54pm 7 10 mph 1019.2mb 48f
12:48pm 7 10 mph 1019.3mb 48f
12:42pm 6 7 mph 1019.4mb 48f
12:36pm 5 7 mph 1019.5mb 47f
12:30pm 6 7 mph 1019.6mb 47f
12:24pm 7 9 mph 1019.6mb 47f
12:18pm 7 8 mph 1019.9mb 47f
12:12pm 6 7 mph 1020.1mb 46f
12:06pm 3 6 mph 1020.2mb 46f
12:00pm 5 6 mph 1020.3mb 46f
11:54am 3 6 mph 1020.5mb 45f
11:48am 5 6 mph 1020.5mb 45f
11:42am 2 5 mph 1020.6mb 45f
11:36am 5 6 mph 1020.6mb 44f
11:30am 2 3 mph 1020.7mb 44f
11:24am 2 3 mph 1020.8mb 43f
11:18am 3 6 mph 1020.8mb 43f
11:12am 3 6 mph 1020.8mb 42f
11:06am  -  5 mph 1021mb 42f
11:00am 3 6 mph 1021.1mb 41f
10:54am 3 6 mph 1021.2mb 40f
10:48am 3 5 mph 1021.2mb 40f
10:42am 2 3 mph 1021.2mb 40f
10:36am 3 6 mph 1021.3mb 39f
10:30am  -  5 mph 1021.3mb 39f
10:24am 5 6 mph 1021.4mb 38f
10:18am 5 7 mph 1021.4mb 38f
10:12am 5 7 mph 1021.4mb 38f
10:06am 6 8 mph 1021.4mb 38f
10:00am 6 7 mph 1021.4mb 39f
9:54am 5 6 mph 1021.4mb 40f
9:48am 5 7 mph 1021.4mb 39f
9:42am 5 7 mph 1021.5mb 39f
9:36am 5 6 mph 1021.6mb 38f
9:30am 5 6 mph 1021.6mb 38f
9:24am 5 6 mph 1021.6mb 38f
9:18am 3 5 mph 1021.6mb 38f
9:12am 3 5 mph 1021.6mb 38f
9:06am 3
mph
1021.6mb 37f
9:00am 3
mph
1021.7mb 37f
8:54am 2 3 mph 1021.8mb 37f
8:48am 2 3 mph 1021.8mb 37f
8:42am 1 3 mph 1021.8mb 37f
8:36am 3
mph
1021.8mb 37f
8:30am 3
mph
1021.8mb 36f
8:24am 3
mph
1021.9mb 36f
8:18am 3
mph
1021.9mb 35f
8:12am 3
mph
1021.9mb 35f
8:06am 3 5 mph 1021.9mb 35f
8:00am 5
mph
1021.9mb 34f
7:54am 3 5 mph 1022mb 34f
7:48am 3 5 mph 1022mb 34f
7:42am 3 6 mph 1021.9mb 34f
7:36am 6 7 mph 1021.8mb 34f
7:30am 3 5 mph 1021.8mb 34f
7:24am 3 5 mph 1021.8mb 34f
7:18am 3
mph
1021.8mb 33f
7:12am 2 3 mph 1021.8mb 33f
7:06am 2 3 mph 1021.9mb 33f
7:00am 2 3 mph 1022mb 33f
6:54am 2 3 mph 1022.1mb 33f
6:48am 2 5 mph 1022mb 33f
6:42am 3 5 mph 1022mb 33f
6:36am 2 3 mph 1022mb 33f
6:30am 2 3 mph 1022mb 34f
6:24am 2 3 mph 1022mb 34f
6:18am 3 5 mph 1022mb 34f
6:12am 3 5 mph 1022.1mb 33f
6:06am 2 3 mph 1022.1mb 33f
6:00am 3
mph
1022.2mb 33f
5:54am 2 3 mph 1022.3mb 33f
5:48am 2 3 mph 1022.3mb 33f
5:42am 3
mph
1022.3mb 33f
5:36am 2 3 mph 1022.3mb 33f
5:30am 2
mph
1022.3mb 33f
5:24am  -  1 mph 1022.3mb 34f
5:18am  -  mph 1022.2mb 34f
5:12am  -  1 mph 1022.2mb 33f
5:06am  -  2 mph 1022.1mb 33f
5:00am 2
mph
1022.1mb 34f
4:54am 2
mph
1022.1mb 33f
4:48am 2 3 mph 1022mb 34f
4:42am 2
mph
1022mb 33f
4:36am 1 3 mph 1022mb 33f
4:30am 2 3 mph 1022.1mb 33f
4:24am 2 3 mph 1022.1mb 34f
4:18am 2
mph
1022.2mb 34f
4:12am 2 3 mph 1022.3mb 33f
4:06am 2 3 mph 1022.3mb 33f
4:00am 3 5 mph 1022.3mb 33f
3:54am 3
mph
1022.4mb 33f
3:48am 3
mph
1022.4mb 34f
3:42am 3 5 mph 1022.5mb 33f
3:36am 5
mph
1022.5mb 33f
3:30am 3
mph
1022.6mb 33f
3:24am 3 5 mph 1022.6mb 33f
3:18am 5
mph
1022.6mb 34f
3:12am 5 6 mph 1022.8mb 34f
3:06am 5 6 mph 1022.9mb 34f
3:00am 5
mph
1022.9mb 34f
2:54am 5
mph
1022.9mb 34f
2:48am 5
mph
1023mb 34f
2:42am 5
mph
1023.1mb 34f
2:36am 3 5 mph 1023.2mb 34f
2:30am 3 5 mph 1023.3mb 34f
2:24am 2 3 mph 1023.4mb 34f
2:18am 3 5 mph 1023.3mb 35f
2:12am 3 5 mph 1023.4mb 35f
2:06am 3 5 mph 1023.4mb 35f
2:00am 5
mph
1023.5mb 35f
1:54am 3 5 mph 1023.5mb 35f
1:48am 3 5 mph 1023.5mb 35f
1:42am 5 6 mph 1023.6mb 35f
1:36am 6
mph
1023.6mb 35f
1:30am 5 6 mph 1023.6mb 35f
1:24am 5 6 mph 1023.6mb 35f
1:18am 5 6 mph 1023.7mb 35f
1:12am 5 6 mph 1023.6mb 35f
1:06am 5 6 mph 1023.6mb 35f
1:00am 6 7 mph 1023.6mb 35f
12:54am 6
mph
1023.7mb 35f
12:48am 5 6 mph 1023.7mb 36f
12:42am 3
mph
1023.8mb 36f
12:36am 3 6 mph 1023.8mb 36f
12:30am 6
mph
1023.8mb 36f
12:24am 3
mph
1023.9mb 36f
12:18am 3 5 mph 1024mb 36f
12:12am 5 6 mph 1024mb 36f
12:06am 3 5 mph 1024mb 36f
12:00am 3
mph
1024.1mb 37f
Wed 10/22 11:54pm 1 2 mph 1024.2mb 37f
11:48pm  -  2 mph 1024.2mb 37f
11:42pm  -  2 mph 1024.2mb 37f
11:36pm 2
mph
1024.1mb 37f
11:30pm 2 5 mph 1024.2mb 37f
11:24pm 2 3 mph 1024.2mb 37f
11:18pm 3 5 mph 1024.2mb 37f
11:12pm 3 5 mph 1024.2mb 37f
11:06pm 3 5 mph 1024.2mb 37f
11:00pm 3 5 mph 1024.2mb 37f
10:54pm 3 5 mph 1024.2mb 38f
10:48pm 3 5 mph 1024.2mb 38f
10:42pm 5 6 mph 1024.2mb 38f
10:36pm 5 6 mph 1024.3mb 38f
10:30pm 5
mph
1024.3mb 38f
10:24pm 3
mph
1024.3mb 38f
10:18pm 2 3 mph 1024.3mb 38f
10:12pm 3
mph
1024.3mb 38f
10:06pm 3 5 mph 1024.3mb 38f
10:00pm 5 6 mph 1024.2mb 38f
9:54pm 5 6 mph 1024.2mb 39f
9:48pm 5 6 mph 1024.2mb 39f
9:42pm 5 6 mph 1024.3mb 39f
9:36pm 6
mph
1024.2mb 39f
9:30pm 5 6 mph 1024.2mb 40f
9:24pm 5 6 mph 1024.2mb 40f
9:18pm 5
mph
1024.3mb 40f
9:12pm 3 5 mph 1024.3mb 40f
9:06pm 5
mph
1024.3mb 40f
9:00pm 3
mph
1024.3mb 40f
8:54pm 2 3 mph 1024.4mb 41f
8:48pm 2
mph
1024.5mb 41f
8:42pm 1 2 mph 1024.5mb 41f
8:36pm 2 6 mph 1024.5mb 41f
8:30pm 3 6 mph 1024.5mb 41f
8:24pm 3 6 mph 1024.4mb 41f
8:18pm 3 6 mph 1024.4mb 41f
8:12pm 3 6 mph 1024.4mb 42f
8:06pm 3 7 mph 1024.4mb 42f
8:00pm 3 6 mph 1024.4mb 42f
7:54pm 3 6 mph 1024.4mb 42f
7:48pm 5 7 mph 1024.4mb 43f
7:42pm 6 8 mph 1024.4mb 43f
7:36pm 5 7 mph 1024.4mb 43f
7:30pm 3 7 mph 1024.4mb 43f
7:24pm 6 8 mph 1024.4mb 43f
7:18pm 3 6 mph 1024.5mb 43f
7:12pm 3 6 mph 1024.5mb 44f
7:06pm 5 6 mph 1024.4mb 44f
7:00pm 3 6 mph 1024.3mb 44f
6:54pm 3 6 mph 1024.3mb 44f
6:48pm 5 6 mph 1024.4mb 45f
6:42pm 3 5 mph 1024.4mb 45f
6:36pm 2 5 mph 1024.4mb 45f
6:30pm 2 6 mph 1024.4mb 46f
6:24pm 3 6 mph 1024.5mb 46f
6:18pm 3 5 mph 1024.5mb 46f
6:12pm 2 5 mph 1024.5mb 46f
6:06pm 3 5 mph 1024.5mb 47f
6:00pm 3 5 mph 1024.4mb 47f
5:54pm 3 6 mph 1024.5mb 47f
5:48pm 3 6 mph 1024.5mb 47f
5:42pm 5 6 mph 1024.5mb 48f
5:36pm 5
mph
1024.6mb 48f
5:30pm 3 5 mph 1024.6mb 49f
5:24pm 3 5 mph 1024.7mb 49f
5:18pm 3 6 mph 1024.8mb 49f
5:12pm 5 6 mph 1024.7mb 49f
5:06pm 5 6 mph 1024.7mb 50f
5:00pm 3 6 mph 1024.8mb 50f
4:54pm 3 7 mph 1024.8mb 50f
4:48pm 5 6 mph 1024.9mb 50f
4:42pm 3 5 mph 1025mb 50f
4:36pm 3 5 mph 1025.1mb 50f
4:30pm 2 6 mph 1025.2mb 50f
4:24pm 2 5 mph 1025.3mb 50f
4:18pm 3 6 mph 1025.3mb 50f
4:12pm 2 6 mph 1025.3mb 51f
4:06pm 3 6 mph 1025.4mb 51f
4:00pm 5 7 mph 1025.4mb 50f
3:54pm 5 7 mph 1025.5mb 50f
3:48pm 5 6 mph 1025.5mb 49f
3:42pm 5 7 mph 1025.5mb 50f
3:36pm 3 7 mph 1025.6mb 50f
3:30pm 2 6 mph 1025.6mb 51f
3:24pm 2 6 mph 1025.7mb 51f
3:18pm 5 6 mph 1025.8mb 50f
3:12pm 3 8 mph 1025.9mb 50f
3:06pm 6 8 mph 1026mb 50f
3:00pm 2 6 mph 1026mb 50f
2:54pm 3 6 mph 1026.1mb 49f
2:48pm 7 9 mph 1026.1mb 49f
2:42pm 6 7 mph 1026.1mb 48f
2:36pm 6 8 mph 1026.2mb 48f
2:30pm 6 8 mph 1026.2mb 48f
2:24pm 1 6 mph 1026.3mb 50f
2:18pm 5 6 mph 1026.4mb 49f
2:12pm 6 8 mph 1026.4mb 48f
2:06pm 5 9 mph 1026.4mb 48f
2:00pm 5 7 mph 1026.3mb 49f
1:54pm  -  5 mph 1026.4mb 49f
1:48pm 2 6 mph 1026.4mb 48f
1:42pm 6 7 mph 1026.5mb 47f
1:36pm 2 7 mph 1026.6mb 47f
1:30pm 3 6 mph 1026.6mb 47f
1:24pm 3 7 mph 1026.7mb 47f
1:18pm 5 8 mph 1026.7mb 47f
1:12pm 3 6 mph 1026.8mb 47f
1:06pm 6 7 mph 1026.9mb 47f
1:00pm 3 6 mph 1027mb 46f
12:54pm 3 6 mph 1027.1mb 46f
12:48pm 3 9 mph 1027.2mb 46f
12:42pm 2 6 mph 1027.2mb 46f
12:36pm 3 6 mph 1027.3mb 45f
12:30pm 3 7 mph 1027.5mb 45f
12:24pm 2 5 mph 1027.5mb 45f
12:18pm 2 6 mph 1027.6mb 45f
12:12pm 5 7 mph 1027.7mb 44f
12:06pm 6 7 mph 1027.8mb 44f
12:00pm 2 6 mph 1027.9mb 45f
11:54am 6 8 mph 1027.9mb 44f
11:48am 3 6 mph 1028mb 44f
11:42am 3 6 mph 1028.1mb 43f
11:36am 3 5 mph 1028.2mb 43f
11:30am 2 3 mph 1028.3mb 43f
11:24am 2 3 mph 1028.3mb 43f
11:18am 2 3 mph 1028.4mb 43f
11:12am  -  2 mph 1028.4mb 42f
11:06am 2 3 mph 1028.5mb 41f
11:00am 2
mph
1028.4mb 41f
10:54am 1 2 mph 1028.5mb 42f
10:48am 1 5 mph 1028.6mb 41f
10:42am 1 3 mph 1028.6mb 41f
10:36am 3 5 mph 1028.6mb 40f
10:30am 3 5 mph 1028.5mb 40f
10:24am 2 3 mph 1028.6mb 40f
10:18am 3 5 mph 1028.6mb 39f
10:12am 3 6 mph 1028.6mb 39f
10:06am 3 5 mph 1028.5mb 39f
10:00am 2 3 mph 1028.6mb 39f
9:54am 3 5 mph 1028.5mb 38f
9:42am 2 6 mph 1028.5mb 38f
9:36am 3 6 mph 1028.5mb 38f
9:30am 5 6 mph 1028.5mb 37f
9:24am 6 7 mph 1028.5mb 37f
9:18am 5 6 mph 1028.5mb 37f
9:12am 5 6 mph 1028.6mb 37f
9:06am 3 5 mph 1028.6mb 37f
9:00am 3 6 mph 1028.7mb 36f
8:54am 3 6 mph 1028.7mb 36f
8:48am 5 6 mph 1028.7mb 36f
8:42am 6
mph
1028.7mb 35f
8:36am 5
mph
1028.7mb 35f
8:30am 3 5 mph 1028.7mb 35f
8:24am 3 5 mph 1028.7mb 35f
8:18am 3 5 mph 1028.6mb 34f
8:12am 3 6 mph 1028.5mb 34f
8:06am 5 6 mph 1028.5mb 34f
8:00am 5 6 mph 1028.4mb 34f
7:54am 3 5 mph 1028.3mb 34f
7:48am 3
mph
1028.3mb 34f
7:42am 2 3 mph 1028.4mb 33f
7:36am 2 3 mph 1028.3mb 33f
7:30am 3
mph
1028.2mb 33f
7:24am 3
mph
1028.2mb 33f
7:18am 2 3 mph 1028.1mb 33f
7:12am 2
mph
1028.1mb 33f
7:06am 1 2 mph 1028.1mb 33f
7:00am 1 2 mph 1028.1mb 33f
6:54am 1 2 mph 1028.1mb 33f
6:48am 2
mph
1028.1mb 33f
6:42am 1 2 mph 1028.1mb 33f
6:36am 1 2 mph 1028mb 33f
6:30am 1 2 mph 1028mb 33f
6:24am 2 3 mph 1027.9mb 33f
6:06am 3 6 mph 1027.9mb 33f
6:00am 5 6 mph 1027.9mb 34f
5:54am 5
mph
1028mb 34f
5:48am 5
mph
1027.9mb 34f
5:42am 3 5 mph 1027.8mb 35f
5:36am 2 3 mph 1027.8mb 35f
5:30am 2 3 mph 1027.7mb 34f
5:24am 3 6 mph 1027.7mb 34f
5:18am 5 7 mph 1027.6mb 33f
5:12am 3 5 mph 1027.6mb 34f
5:06am 5 7 mph 1027.5mb 34f
5:00am 3 7 mph 1027.5mb 33f
4:54am 3 5 mph 1027.4mb 33f
4:48am 3 5 mph 1027.4mb 33f
4:42am 2
mph
1027.4mb 33f
4:36am 2 3 mph 1027.4mb 34f
4:30am 2 3 mph 1027.3mb 34f
4:24am 2 3 mph 1027.3mb 34f
4:18am 2
mph
1027.3mb 34f
4:12am  -  3 mph 1027.3mb 34f
4:06am 2 3 mph 1027.3mb 34f
4:00am 2 3 mph 1027.2mb 34f
3:54am  -  1 mph 1027.2mb 33f
3:48am  -  2 mph 1027.1mb 33f
3:42am 1 3 mph 1027.1mb 33f
3:36am  -  2 mph 1027.1mb 34f
3:30am 2 6 mph 1026.9mb 34f
3:24am 5 6 mph 1026.8mb 34f
3:18am 5 6 mph 1026.8mb 33f
3:12am 3 5 mph 1026.8mb 33f
3:06am 5 6 mph 1026.7mb 33f
3:00am 3
mph
1026.7mb 34f
2:54am 2 3 mph 1026.7mb 33f
2:48am 2 3 mph 1026.7mb 33f
2:42am 2 3 mph 1026.6mb 33f
2:36am 3 5 mph 1026.5mb 33f
2:30am 3 5 mph 1026.6mb 33f
2:24am 5 6 mph 1026.5mb 34f
2:18am 5 6 mph 1026.5mb 34f
2:12am 5 7 mph 1026.5mb 34f
2:06am 5 7 mph 1026.5mb 34f
2:00am 3 7 mph 1026.4mb 34f
1:54am 5 8 mph 1026.4mb 34f
1:48am 6 8 mph 1026.3mb 34f
1:42am 5 7 mph 1026.3mb 34f